Location: Casco Millpond
(44.5581°N, 87.6111°W)
Time: 20:53:48
(UTC+00:00)

Thor Agena Rocket - Pass Details

Date: 16 January 2026
Orbit: 755 x 802 km, 99.1° (Epoch: 10 February)

Event Time Altitude Azimuth Distance (km) Brightness Sun altitude
Rises 23:06:29 0° 161° (SSE) 3,203 6.8 -5.4°
Reaches altitude 10° 23:08:46 10° 160° (SSE) 2,279 6.0 -5.8°
Maximum altitude 23:13:47 82° 75° (ENE) 768 3.5 -6.6°
Drops below altitude 10° 23:18:49 10° 347° (NNW) 2,293 5.9 -7.4°
Sets 23:21:08 0° 347° (NNW) 3,224 6.6 -7.8°
